Regional Weather Roundup
Issued by NWS

Home | Current Version | Previous Version | Graphics & Text | Print | Product List | Glossary Off
Versions: 1 2 3 4 5 6 7 8 9 10 11 12 13 14 15 16 17 18 19 20 21 22 23 24 25 26 27 28 29 30 31 32 33 34 35 36 37 38 39 40 41 42 43 44 45 46 47 48 49 50

000
ASUS43 KMPX 231910
RWRMN
WEATHER ROUNDUP FOR MINNESOTA
NATIONAL WEATHER SERVICE TWIN CITIES/CHANHASSEN MN
200 PM CDT WED JUL 23 2014


NOTE: "FAIR" INDICATES FEW OR NO CLOUDS BELOW 12,000 FEET WITH NO
SIGNIFICANT WEATHER AND/OR OBSTRUCTIONS TO VISIBILITY. N/A MEANS
CURRENT SKY AND/OR WEATHER CONDITIONS ARE NOT AVAILABLE.

MNZ060>063-068>070-232000-
   Twin Cities Metro

CITY           SKY/WX    TMP DP  RH WIND       PRES   REMARKS
TWIN CITIES    MOSUNNY   82  50  32 NW9       30.23S
ST PAUL        MOSUNNY   80  54  40 NW5       30.22F
CRYSTAL        PTSUNNY   82  51  34 VRB7      30.22S
BLAINE         MOSUNNY   79  54  41 N6        30.23S
LAKEVILLE      PTSUNNY   77  55  47 CALM      30.23S
EDEN PRAIRIE   SUNNY     81  53  37 VRB7      30.23S
SOUTH ST PAUL  MOSUNNY   78  51  39 CALM      30.22F
LAKE ELMO      FAIR      77  55  47 N5        30.24S
$$
MNZ001>005-007-008-013>017-022>024-027-028-232000-
   Northwest Minnesota

CITY           SKY/WX    TMP DP  RH WIND       PRES   REMARKS
BEMIDJI        PTSUNNY   72  54  52 N5        30.27S
HALLOCK        SUNNY     72  48  43 N6        30.29S
ROSEAU         MOSUNNY   72  59  64 E8        30.28S
WARROAD        MOSUNNY   70  57  64 NE8       30.29F
THIEF RVR FALL SUNNY     72  55  56 CALM      30.28S
CROOKSTON      SUNNY     72  59  64 N8        30.29S
FOSSTON        SUNNY     72  57  60 NW5       30.29S
DETROIT LAKES  SUNNY     73  54  49 N6        30.29S
MOORHEAD       SUNNY     75  61  60 NE6       30.28S
PARK RAPIDS    MOSUNNY   75  52  44 N9        30.26F
$$
MNZ006-009>011-018-025>026-232000-
   North Central Minnesota

CITY           SKY/WX    TMP DP  RH WIND       PRES   REMARKS
BAUDETTE       MOSUNNY   72  52  49 N5        30.28F
FLAG ISLAND    SUNNY     70  46  43 N6        30.27F
INTL FALLS     PTSUNNY   69  50  50 E5        30.27S
WASKISH        SUNNY     73  57  56 W5        30.26F
BIG FORK       SUNNY     72  54  53 N7        30.27S
LONGVILLE      MOSUNNY   73  55  53 NW5       30.27S
GRAND RAPIDS   MOSUNNY   73  50  43 N7        30.26F
CRANE LAKE     PTSUNNY   70  46  43 N6        30.28S
ORR            PTSUNNY   70  48  46 NW3       30.25S
COOK           MOSUNNY   68  52  56 N5        30.27S
$$
MNZ012-019>021-037-232000-
   Northeast Minnesota

CITY           SKY/WX    TMP DP  RH WIND       PRES   REMARKS
DULUTH         MOSUNNY   74  53  48 NE8       30.24F
ELY            PTSUNNY   70  50  49 NE6       30.25F
HIBBING        PTSUNNY   71  52  50 N10       30.26S
EVELETH        MOSUNNY   70  50  49 N6        30.27S
DULUTH HARBOR  MOSUNNY   64  57  77 N5        30.25S
TWO HARBORS    PTSUNNY   68  55  64 SE7       30.23S
SILVER BAY     SUNNY     68  57  68 S5        30.23S
GRAND MARAIS     N/A     58  52  80 CALM      30.24F
G MARAIS ARPRT PTSUNNY   63  54  72 E6        30.26S
$$
MNZ029>031-032-039>041-046>048-054>057-064-232000-
   West Central Minnesota

CITY           SKY/WX    TMP DP  RH WIND       PRES   REMARKS
FERGUS FALLS   SUNNY     77  52  41 N6        30.26F
WHEATON        MOSUNNY   75  54  46 CALM      30.27F
MORRIS         SUNNY     79  55  44 N5        30.26S
ALEXANDRIA     MOSUNNY   76  52  43 N10       30.29S
ELBOW LAKE     FAIR      75  57  53 N7        30.27F
WADENA         MOSUNNY   73  57  56 N7        30.27S
GLENWOOD       MOSUNNY   77  54  44 N5        30.28F
APPLETON       SUNNY     81  46  30 E9        30.25F
BENSON         SUNNY     79  55  44 NE10      30.26F
ORTONVILLE     SUNNY     79  52  38 E7        30.26F
MADISON        SUNNY     81  57  44 NE3       30.26F
WILLMAR        FAIR      81  45  28 N12       30.27F
$$
MNZ033>034-036-042>043-049>051-058-059-232000-
   Central Minnesota

CITY           SKY/WX    TMP DP  RH WIND       PRES   REMARKS
ST CLOUD       MOSUNNY   77  50  38 N10       30.25F
SAUK CENTRE    FAIR      74  53  46 NW6       30.27F
PAYNESVILLE    MOSUNNY   77  48  36 NW7G18    30.26F
AITKIN         MOSUNNY   77  57  50 CALM      30.24F
PINE RIVER     PTSUNNY   72  54  53 N6        30.29S
BRAINERD       MOSUNNY   75  49  39 N10G17    30.26F
STAPLES        MOSUNNY   75  52  43 N7        30.27S
LONG PRAIRIE   FAIR      73  54  49 W8        30.28S
LITTLE FALLS   MOSUNNY   73  43  33 N9        30.26S
LITCHFIELD     SUNNY     79  50  36 N7        30.26F
BUFFALO        SUNNY     78  50  37 NW6       30.25S
MAPLE LAKE     MOSUNNY   79  55  43 N7        30.25F
$$
MNZ037-044-045-052-053-232000-
   East Central Minnesota

CITY           SKY/WX    TMP DP  RH WIND       PRES   REMARKS
PRINCETON      PTSUNNY   75  55  50 N6        30.24F
MORA           PTSUNNY   73  54  49 CALM      30.26S
CAMBRIDGE      MOSUNNY   79  59  50 N5        30.22F
RUSH CITY      MOSUNNY   75  55  50 N3        30.24S
MOOSE LAKE     MOSUNNY   75  54  46 N6        30.23S
HINCKLEY       FAIR      77  54  44 NW6       30.24S
CLOQUET        MOSUNNY   73  50  43 NW8G17    30.25S
MCGREGOR       MOSUNNY   73  55  53 N5        30.25F
$$
MNZ071>073-080-081-089-090-097-098-232000-
   Southwest Minnesota

CITY           SKY/WX    TMP DP  RH WIND       PRES   REMARKS
MONTEVIDEO     SUNNY     81  55  41 NE6       30.26F
GRANITE FALLS  SUNNY     78  53  41 NE6       30.27F
CANBY          SUNNY     78  52  40 CALM      30.29R
MARSHALL       SUNNY     77  54  44 SE5       30.26S
REDWOOD FALLS  MOSUNNY   79  53  40 NE7       30.25F
OLIVIA         SUNNY     77  50  38 N5        30.25F
PIPESTONE      MOSUNNY   75  52  43 E5        30.29R
WINDOM         PTSUNNY   79  54  41 NW6       30.27S
WORTHINGTON    PTSUNNY   75  55  50 NE3       30.29S
JACKSON        SUNNY     79  54  41 E5        30.27S
TRACY          SUNNY     78  54  43 NE5       30.28S
SLAYTON        MOSUNNY   76  49  38 CALM      30.29S
$$
MNZ065>067-074>077-082>085-091>093-232000-
   South Central Minnesota

CITY           SKY/WX    TMP DP  RH WIND       PRES   REMARKS
MANKATO        SUNNY     77  50  38 N7        30.24F
NEW ULM        SUNNY     77  54  44 CALM      30.25S
ST JAMES       MOSUNNY   81  52  36 N6        30.26S
FAIRMONT       MOSUNNY   79  55  44 E3        30.25S
GLENCOE        MOSUNNY   77  52  41 N8        30.24F
FARIBAULT      MOSUNNY   82  45  26 N6        30.24F
OWATONNA       SUNNY     79  52  38 CALM      30.24F
WASECA         MOSUNNY   77  46  33 W3        30.26F
ALBERT LEA     MOSUNNY   79  54  41 SW3       30.23F
$$
MNZ078>079-086>088-094>096-232000-
   Southeast Minnesota

CITY           SKY/WX    TMP DP  RH WIND       PRES   REMARKS
ROCHESTER      SUNNY     76  58  53 NW8       30.25S
RED WING       MOSUNNY   79  52  38 N3        30.21S
STANTON        MOSUNNY   78  51  39 NW6       30.22S
DODGE CENTER   MOSUNNY   75  57  53 N8        30.25S
WINONA         MOSUNNY   77  55  47 CALM      30.22S
AUSTIN         MOSUNNY   79  52  38 CALM      30.23F
PRESTON        PTSUNNY   72  61  66 NE5       30.25S
$$
ABBREVIATIONS USED IN REMARKS
   TC - TEMPERATURES IN CELSIUS
  WCI - WIND CHILL INDEX
   HX - HEAT INDEX
  VSB - VISIBILITY
$$



USA.gov is the U.S. government's official web portal to all federal, state and local government web resources and services.